sat.trackr.live / text

‹ back to catalog

STARLINK-31904

NORAD 59657 · 2024-084D

PAYLOAD ACTIVE UNKNOWN

§ Identity

Operator
Country
US
Launch date
2024-05-06
Launch site
AFETR
Launch vehicle
Mass (kg)
RCS (m²)

Purposes: comms

External: N2YO · Heavens-Above · Gunter

§ Orbital elements

Epoch: 2026-05-25T04:48:14.514336Z

Period
94.27 min
Inclination
43.0053°
Eccentricity
0.0002320
Mean motion
15.27579977 rev/d
Perigee alt
481.5 km
Apogee alt
484.6 km
Semi-major
6,861.2 km
B*
-1.2241e-6
RAAN
329.7778°
Arg perigee
263.0564°
Mean anomaly
97.0024°
Rev number
11,607

§ Raw data

STARLINK-319041 59657U 24084D   26145.20016799 -.00000296  00000+0 -12241-5 0  99952 59657  43.0053 329.7778 0002320 263.0564  97.0024 15.27579977116071

JSON: /api/v1/satellites/59657 · /tle

For live sub-satellite position, see the globe view (requires WebGL).

§ Visibility from observer

Set your observer location to see the next 7 days of passes ≥ 10°. The values pass through the URL so the page stays shareable.

No JS? Fill the form by hand. The geolocation button needs JavaScript.